Greenville Downtown, SC

12:11 PM EDT on July 22, 2017 (GMT -0400)
Greenville Downtown

Weather History for KGMU - June, 2013

Change the Weather History Date:

Saturday, June 22, 2013

  Actual Average Record
Temperature  
Mean Temperature 75 °F -  
Max Temperature 86 °F 83 °F 99 °F (2006)
Min Temperature 66 °F 66 °F 61 °F (2003)
Cooling Degree Days 10    
Growing Degree Days 25 (Base 50)    
Moisture  
Dew Point 61 °F    
Average Humidity 60    
Maximum Humidity 81    
Minimum Humidity 41    
Precipitation  
Precipitation 0.00 in - - ()
Sea Level Pressure  
Sea Level Pressure 30.18 in    
Wind  
Wind Speed 6 mph (NE)    
Max Wind Speed 10 mph    
Max Gust Speed -    
Visibility 10 miles    
Events      
Averages and records for this station are not official NWS values.
T = Trace of Precipitation, MM = Missing Value Source: NWS Daily Summary

Daily Weather History Graph

Daily Weather History Graph

Search for Another Location

Airport or City:

Trip Planner

Search our weather history database for the weather conditions in past years. The results will help you decide how hot, cold, wet, or windy it might be!

Date:

Astronomy

Jun. 22, 2013 Rise Set
Actual Time 6:16 AM EDT 8:46 PM EDT
Civil Twilight 5:46 AM EDT 9:16 PM EDT
Nautical Twilight 5:10 AM EDT 9:52 PM EDT
Astronomical Twilight 4:29 AM EDT 10:33 PM EDT
Moon 8:02 PM EDT 5:25 AM EDT
Length of Visible Light 15h 29m
Length of Day
14h 29m
Waxing Gibbous, 99% of the Moon is Illuminated
Jun 22
Waxing Gibbous
Jun 23
Full
Jun 30
Last Quarter
Jul 8
New
Jul 15
First Quarter

Hourly Weather History & Observations

Time (EDT) Temp. Heat Index Dew Point Humidity Pressure Visibility Wind Dir Wind Speed Gust Speed Precip Events Conditions
12:53 AM 70.0 °F - 62.1 °F 76% 30.21 in 10.0 mi North 5.8 mph - N/A   Clear
1:53 AM 69.1 °F - 62.1 °F 78% 30.20 in 10.0 mi North 6.9 mph - N/A   Clear
2:53 AM 68.0 °F - 61.0 °F 78% 30.19 in 10.0 mi NNE 8.1 mph - N/A   Clear
3:53 AM 66.9 °F - 61.0 °F 81% 30.18 in 10.0 mi NNE 6.9 mph - N/A   Clear
4:53 AM 66.0 °F - 60.1 °F 81% 30.19 in 10.0 mi NNE 9.2 mph - N/A   Clear
5:53 AM 66.0 °F - 59.0 °F 78% 30.20 in 10.0 mi North 9.2 mph - N/A   Clear
6:53 AM 66.9 °F - 59.0 °F 76% 30.21 in 10.0 mi NNE 9.2 mph - N/A   Clear
7:53 AM 70.0 °F - 59.0 °F 68% 30.22 in 10.0 mi NNE 10.4 mph - N/A   Clear
8:53 AM 73.0 °F - 60.1 °F 64% 30.22 in 10.0 mi ENE 9.2 mph - N/A   Clear
9:53 AM 75.9 °F - 62.1 °F 62% 30.24 in 10.0 mi NE 6.9 mph - N/A   Clear
10:53 AM 78.1 °F - 61.0 °F 56% 30.23 in 10.0 mi NE 8.1 mph - N/A   Clear
11:53 AM 80.1 °F 80.9 °F 60.1 °F 50% 30.23 in 10.0 mi NE 8.1 mph - N/A   Scattered Clouds
12:53 PM 80.1 °F 80.9 °F 60.1 °F 50% 30.22 in 10.0 mi Variable 3.5 mph - N/A   Clear
1:53 PM 82.9 °F 82.6 °F 57.9 °F 42% 30.22 in 10.0 mi NNW 5.8 mph - N/A   Partly Cloudy
2:53 PM 82.0 °F 82.0 °F 57.9 °F 44% 30.19 in 10.0 mi Variable 3.5 mph - N/A   Clear
3:53 PM 84.9 °F 84.8 °F 60.1 °F 43% 30.17 in 10.0 mi ENE 6.9 mph - N/A   Scattered Clouds
4:53 PM 84.9 °F 84.4 °F 59.0 °F 41% 30.14 in 10.0 mi Variable 4.6 mph - N/A   Clear
5:53 PM 84.0 °F 84.0 °F 60.1 °F 44% 30.13 in 10.0 mi East 3.5 mph - N/A   Partly Cloudy
6:53 PM 84.0 °F 84.0 °F 60.1 °F 44% 30.12 in 10.0 mi Calm Calm - N/A   Clear
7:53 PM 82.0 °F 83.0 °F 62.1 °F 51% 30.12 in 10.0 mi SSE 5.8 mph - N/A   Clear
8:53 PM 79.0 °F - 63.0 °F 58% 30.13 in 10.0 mi SSE 3.5 mph - N/A   Partly Cloudy
9:53 PM 79.0 °F - 62.1 °F 56% 30.14 in 10.0 mi Calm Calm - N/A   Mostly Cloudy
10:53 PM 80.1 °F 81.2 °F 62.1 °F 54% 30.16 in 10.0 mi Calm Calm - N/A   Clear
11:53 PM 79.0 °F - 63.0 °F 58% 30.16 in 10.0 mi Calm Calm - N/A   Clear